Bei Facebook empfehlenBei Twitter postenGoogle plusPinterest

Das Wetter im Erzgebirge am 20.01.2016

Wetter und Klima am 20.01.2016 Holzhau im Erzgebirge (630m ü.NN)
Letzte gemessene Temperatur und Uhrzeit der Messung23:45:00 Uhr-4.50 °C
Temperatur (Maximum / Höchstwert) und Uhrzeit der Messung21:30:00 Uhr-3.90 °C
Temperatur (Minimum / Tiefstwert) und Uhrzeit der Messung00:00:00-11.10 °C
Errechneter Absolutwert der Temperaturschwankungen zwischen Tmin und Tmax des Tages7.20 K
Errechnete Tagesmitteltemperatur-5.86875 °C
Gesamt - Niederschlag des Tages (in flüssiger Form)0.00 Liter / m²
Luftdruck (Maximum / Höchstwert) und Zeitpunkt der Messung23:45:00 Uhr1011.80 hPa
Luftdruck (Minimum / Tiefstwert) und Zeitpunkt der Messung04:45:00 Uhr1007.30 hPa
Errechneter Absolutwert der Luftdruckschwankungen des Tages4.50 hPa
Höchste gemessene Windgeschwindigkeit und Uhrzeit der Messung23:45:00 Uhr0.00 km/h
Errechnete Windhäufigkeit in Relation zu den Messwerten des Tages0.00000 %
Niedrigste Windkühle (Windchill) und Zeitpunkt der Messung00:00:00 Uhr-11.10 °C
Taupunkt (Maximum / Höchstwert) und Uhrzeit der Messung21:30:00 Uhr-4.80 °C
Taupunkt (Minimum / Tiefstwert) und Uhrzeit der Messung00:00:00-12.70 °C
Anzahl der automatisch eingelesenen Messwerte 96

Detaillierte Wetter- und Klima- Messwerte für den 20.01.2016 in Holzhau im Erzgebirge (630m ü.NN)
ZeitTemperaturLuftdruckRel. LuftfeuchteWindWindrichtungWindchillTaupunktNiederschlag l/m²
23:45:00-4.50 °C1011.80 hPa94.00 %-5.40 °C 
23:30:00-4.40 °C1011.60 hPa94.00 %-5.30 °C 
23:15:00-4.40 °C1011.50 hPa94.00 %-5.30 °C 
23:00:00-4.20 °C1011.50 hPa94.00 %-5.10 °C 
22:45:00-4.10 °C1011.40 hPa94.00 %-5.00 °C 
22:30:00-4.10 °C1011.20 hPa94.00 %-5.00 °C 
22:15:00-4.10 °C1011.30 hPa94.00 %-5.00 °C 
22:00:00-4.00 °C1011.30 hPa94.00 %-4.90 °C 
21:45:00-4.00 °C1011.20 hPa94.00 %-4.90 °C 
21:30:00-3.90 °C1010.90 hPa94.00 %-4.80 °C 
21:15:00-3.90 °C1010.80 hPa94.00 %-4.80 °C 
21:00:00-3.90 °C1010.80 hPa94.00 %-4.80 °C 
20:45:00-3.90 °C1010.50 hPa94.00 %-4.80 °C 
20:30:00-3.90 °C1010.50 hPa94.00 %-4.80 °C 
20:15:00-4.10 °C1010.30 hPa94.00 %-5.00 °C 
20:00:00-4.10 °C1010.00 hPa94.00 %-5.00 °C 
19:45:00-4.10 °C1009.90 hPa94.00 %-5.00 °C 
19:30:00-4.00 °C1009.90 hPa94.00 %-4.90 °C 
19:15:00-3.90 °C1009.80 hPa93.00 %-5.00 °C 
19:00:00-3.90 °C1009.60 hPa93.00 %-5.00 °C 
18:45:00-4.10 °C1009.60 hPa93.00 %-5.20 °C 
18:30:00-4.10 °C1009.50 hPa93.00 %-5.20 °C 
18:15:00-4.20 °C1009.50 hPa93.00 %-5.30 °C 
18:00:00-4.20 °C1009.40 hPa93.00 %-5.30 °C 
17:45:00-4.20 °C1009.40 hPa93.00 %-5.30 °C 
17:30:00-4.20 °C1009.50 hPa93.00 %-5.30 °C 
17:15:00-4.20 °C1009.40 hPa93.00 %-5.30 °C 
17:00:00-4.20 °C1009.30 hPa93.00 %-5.30 °C 
16:45:00-4.20 °C1009.30 hPa93.00 %-5.30 °C 
16:30:00-4.20 °C1009.00 hPa93.00 %-5.30 °C 
16:15:00-4.20 °C1009.20 hPa92.00 %-5.40 °C 
16:00:00-4.20 °C1009.10 hPa92.00 %-5.40 °C 
15:45:00-4.20 °C1009.00 hPa93.00 %-5.30 °C 
15:30:00-4.20 °C1009.00 hPa93.00 %-5.30 °C 
15:15:00-4.20 °C1009.00 hPa93.00 %-5.30 °C 
15:00:00-4.10 °C1008.80 hPa93.00 %-5.20 °C 
14:45:00-4.20 °C1008.70 hPa92.00 %-5.40 °C 
14:30:00-4.20 °C1008.60 hPa92.00 %-5.40 °C 
14:15:00-4.40 °C1008.60 hPa92.00 %-5.60 °C 
14:00:00-4.40 °C1008.70 hPa92.00 %-5.60 °C 
13:45:00-4.20 °C1008.80 hPa92.00 %-5.40 °C 
13:30:00-4.10 °C1008.80 hPa93.00 %-5.20 °C 
13:15:00-3.90 °C1008.60 hPa93.00 %-5.00 °C 
13:00:00-4.10 °C1008.80 hPa93.00 %-5.20 °C 
12:45:00-4.10 °C1008.90 hPa93.00 %-5.20 °C 
12:30:00-4.10 °C1008.90 hPa93.00 %-5.20 °C 
12:15:00-4.40 °C1009.10 hPa92.00 %-5.60 °C 
12:00:00-4.30 °C1009.00 hPa92.00 %-5.50 °C 
11:45:00-4.40 °C1008.90 hPa93.00 %-5.50 °C 
11:30:00-4.60 °C1008.90 hPa92.00 %-5.80 °C 
11:15:00-4.70 °C1008.90 hPa92.00 %-5.90 °C 
11:00:00-4.80 °C1008.80 hPa92.00 %-6.00 °C 
10:45:00-5.00 °C1008.90 hPa92.00 %-6.20 °C 
10:30:00-5.10 °C1008.80 hPa92.00 %-6.30 °C 
10:15:00-5.20 °C1008.80 hPa92.00 %-6.40 °C 
10:00:00-5.40 °C1008.60 hPa92.00 %-6.60 °C 
09:45:00-5.60 °C1008.40 hPa92.00 %-6.80 °C 
09:30:00-5.60 °C1008.30 hPa92.00 %-6.80 °C 
09:15:00-5.70 °C1008.20 hPa92.00 %-6.90 °C 
09:00:00-5.80 °C1008.20 hPa92.00 %-7.00 °C 
08:45:00-5.90 °C1008.00 hPa92.00 %-7.10 °C 
08:30:00-6.10 °C1008.10 hPa92.00 %-7.30 °C 
08:15:00-6.20 °C1008.00 hPa92.00 %-7.40 °C 
08:00:00-6.40 °C1007.90 hPa92.00 %-7.60 °C 
07:45:00-6.70 °C1007.80 hPa91.00 %-8.10 °C 
07:30:00-6.90 °C1007.70 hPa91.00 %-8.30 °C 
07:15:00-6.90 °C1007.50 hPa91.00 %-8.30 °C 
07:00:00-7.10 °C1007.60 hPa91.00 %-8.50 °C 
06:45:00-7.10 °C1007.50 hPa91.00 %-8.50 °C 
06:30:00-7.20 °C1007.70 hPa91.00 %-8.60 °C 
06:15:00-7.30 °C1007.60 hPa91.00 %-8.70 °C 
06:00:00-7.50 °C1007.60 hPa91.00 %-8.90 °C 
05:45:00-7.70 °C1007.50 hPa91.00 %-9.10 °C 
05:30:00-7.80 °C1007.60 hPa91.00 %-9.20 °C 
05:15:00-7.90 °C1007.60 hPa91.00 %-9.30 °C 
05:00:00-7.90 °C1007.70 hPa91.00 %-9.30 °C 
04:45:00-8.00 °C1007.30 hPa91.00 %-9.40 °C 
04:30:00-8.10 °C1007.50 hPa90.00 %-9.60 °C 
04:15:00-8.10 °C1007.30 hPa90.00 %-9.60 °C 
04:00:00-8.20 °C1007.60 hPa90.00 %-9.70 °C 
03:45:00-8.30 °C1007.40 hPa90.00 %-9.80 °C 
03:30:00-8.40 °C1007.50 hPa90.00 %-9.90 °C 
03:15:00-8.40 °C1007.50 hPa90.00 %-9.90 °C 
03:00:00-8.60 °C1007.40 hPa90.00 %-10.10 °C 
02:45:00-8.90 °C1007.50 hPa90.00 %-10.40 °C 
02:30:00-9.40 °C1007.30 hPa90.00 %-10.90 °C 
02:15:00-9.70 °C1007.50 hPa90.00 %-11.20 °C 
02:00:00-10.10 °C1007.70 hPa90.00 %-11.60 °C 
01:45:00-10.40 °C1007.70 hPa90.00 %-11.90 °C 
01:30:00-10.50 °C1007.70 hPa90.00 %-12.00 °C 
01:15:00-10.70 °C1007.70 hPa89.00 %-12.30 °C 
01:00:00-10.70 °C1007.90 hPa89.00 %-12.30 °C 
00:45:00-10.70 °C1008.00 hPa89.00 %-12.30 °C 
00:30:00-10.90 °C1008.20 hPa89.00 %-12.50 °C 
00:15:00-11.00 °C1008.20 hPa89.00 %-12.60 °C 
00:00:00-11.10 °C1008.50 hPa89.00 %-12.70 °C 

Permanenter Link zu dieser Seite: Wetter im Erzgebirge am 20.01.2016
Performance-Info: Die Erstellung der Seite / Statistik(en) / Tabelle(n) erforderte 5 Datenbankserver-Abfrage(n) und dauerte 100 Millisekunden. (Dieser Messwert ist von der Gesamt-Auslastung des Servers abhängig.)
Erzgebirge - Wetter | Erzgebirge - Wetter (Mobilgeräte) | Komplette Klimadatenbank